DO3HUM-5 Weather Reports


Display with metric or nautical units.
time (UTC)temp
F
wind
direction
speed
MPH
gust
MPH
rain 1hr
in
rain 24hr
in
rain mn
in
humidity
%
barometer
mb
20260903070555 62 114 1.0 6.0 0.00 0.01 0.00 78 1025.9
20260903065543 62 121 2.0 4.0 0.00 0.01 0.00 78 1026.0
20260903064532 62 150 0.0 2.0 0.00 0.01 0.00 76 1026.1
20260903063520 62 0.0 2.0 0.00 0.01 0.00 77 1026.2
20260903062057 61 0.0 0.0 0.00 0.01 0.00 79 1026.6
20260903061108 60 90 0.0 2.0 0.00 0.01 0.00 82 1026.3
20260903055608 57 0.0 0.0 0.00 0.01 0.00 91 1026.6
20260903054032 54 0.0 0.0 0.00 0.01 0.00 94 1026.7
20260903053020 53 0.0 0.0 0.00 0.01 0.00 94 1026.6
20260903052109 52 0.0 0.0 0.00 0.01 0.00 94 1026.7
20260903050521 52 0.0 0.0 0.00 0.01 0.00 94 1026.5
20260903045607 52 0.0 0.0 0.00 0.01 0.00 94 1026.5
20260903044557 52 0.0 0.0 0.00 0.01 0.00 94 1026.4
20260903043555 52 0.0 0.0 0.00 0.01 0.00 93 1026.3
20260903042543 52 0.0 0.0 0.00 0.01 0.00 93 1026.3
20260903041527 52 0.0 0.0 0.00 0.01 0.00 93 1026.4
20260903040519 52 0.0 0.0 0.00 0.01 0.00 93 1026.5
20260903035608 53 0.0 0.0 0.00 0.01 0.00 93 1026.4
20260903034055 53 0.0 0.0 0.00 0.01 0.00 93 1026.6
20260903033021 53 0.0 0.0 0.00 0.01 0.00 94 1026.5
20260903032108 53 0.0 0.0 0.00 0.01 0.00 94 1026.7
20260903030556 53 0.0 0.0 0.00 0.01 0.00 94 1026.7
20260903025543 53 0.0 0.0 0.00 0.01 0.00 94 1026.8
20260903024531 53 0.0 0.0 0.00 0.01 0.00 94 1026.8
20260903023521 53 0.0 0.0 0.00 0.01 0.00 94 1026.9
20260903022108 53 0.0 0.0 0.00 0.01 0.00 94 1026.8
20260903020557 53 0.0 0.0 0.00 0.01 0.00 94 1026.8
20260903015543 53 0.0 0.0 0.00 0.01 0.00 94 1026.8
20260903014532 53 0.0 0.0 0.00 0.01 0.00 94 1026.8
20260903013520 53 0.0 0.0 0.00 0.01 0.00 94 1026.9
20260903012031 53 0.0 0.0 0.00 0.01 0.00 94 1026.8
20260903011019 54 0.0 0.0 0.00 0.01 0.00 94 1027.0
20260903010108 54 0.0 0.0 0.00 0.01 0.00 94 1027.1
20260903004544 53 0.0 0.0 0.00 0.01 0.00 94 1027.1
20260903003531 53 0.0 0.0 0.00 0.01 0.00 94 1027.0
20260903002519 53 0.0 0.0 0.00 0.01 0.00 94 1027.1
20260903001608 53 0.0 0.0 0.00 0.01 0.00 94 1027.1
20260903000556 53 0.0 0.0 0.00 0.01 0.00 94 1027.0
20260902235549 54 0.0 0.0 0.00 0.01 0.00 94 1027.1
20260902234533 53 0.0 0.0 0.00 0.01 0.00 94 1027.1
20260902233520 53 0.0 0.0 0.00 0.01 0.00 94 1027.2
20260902232056 54 0.0 0.0 0.00 0.01 0.00 94 1027.1
20260902231033 55 0.0 0.0 0.00 0.01 0.00 94 1027.1
20260902230021 55 0.0 0.0 0.00 0.01 0.00 94 1027.2
20260902225109 55 0.0 0.0 0.00 0.01 0.00 94 1027.1
20260902224055 55 0.0 0.0 0.00 0.01 0.00 94 1027.1
20260902223019 55 0.0 0.0 0.00 0.01 0.00 93 1027.1
20260902222109 55 0.0 0.0 0.00 0.01 0.00 93 1027.1
20260902220555 56 0.0 0.0 0.00 0.01 0.00 93 1027.1
20260902215608 56 0.0 0.0 0.00 0.01 0.01 93 1026.9
20260902214108 57 0.0 0.0 0.00 0.01 0.01 93 1026.9
20260902212534 57 0.0 0.0 0.00 0.01 0.01 93 1026.9
20260902211520 57 0.0 0.0 0.00 0.01 0.01 93 1026.9
20260902210055 57 0.0 0.0 0.00 0.01 0.01 92 1026.7
20260902205108 58 0.0 0.0 0.00 0.01 0.01 92 1026.8
20260902204055 58 0.0 0.0 0.00 0.01 0.01 92 1026.8
20260902203055 58 0.0 0.0 0.00 0.01 0.01 92 1026.8
20260902202044 58 0.0 0.0 0.00 0.01 0.01 92 1026.7
20260902200607 58 0.0 0.0 0.00 0.01 0.01 92 1026.8
20260902195555 58 0.0 0.0 0.00 0.01 0.01 91 1026.7
20260902194545 58 0.0 0.0 0.00 0.01 0.01 91 1026.7
20260902193019 59 0.0 0.0 0.00 0.01 0.01 91 1026.8
20260902192110 59 0.0 0.0 0.00 0.01 0.01 90 1026.7
20260902190554 59 0.0 0.0 0.00 0.01 0.01 90 1026.6
20260902185608 60 0.0 0.0 0.00 0.01 0.01 90 1026.4
20260902184109 60 0.0 0.0 0.00 0.01 0.01 88 1026.5
20260902182520 61 0.0 0.0 0.00 0.01 0.01 87 1026.5
20260902181608 62 0.0 0.0 0.00 0.01 0.01 86 1026.3
20260902180556 62 0.0 0.0 0.00 0.01 0.01 86 1026.1
20260902175609 63 0.0 0.0 0.00 0.01 0.01 85 1026.0
20260902174101 63 0.0 0.0 0.00 0.01 0.01 84 1026.0
20260902173020 64 0.0 0.0 0.01 0.01 0.01 82 1025.9
20260902172109 64 0.0 0.0 0.01 0.01 0.01 83 1025.9
20260902170555 64 0.0 0.0 0.01 0.01 0.01 82 1026.0
20260902165543 64 0.0 0.0 0.01 0.01 0.01 82 1025.8
20260902164530 65 0 0.0 2.0 0.01 0.01 0.01 81 1025.9
20260902163520 67 16 1.0 2.0 0.01 0.01 0.01 75 1025.9
20260902162108 71 311 2.0 11.0 0.00 0.00 0.00 61 1025.8
20260902160555 72 315 0.0 2.0 0.00 0.00 0.00 58 1025.4
20260902155608 73 270 0.0 2.0 0.00 0.00 0.00 55 1025.3
20260902154109 74 292 1.0 6.0 0.00 0.00 0.00 54 1025.4
20260902152530 75 274 1.0 2.0 0.00 0.00 0.00 53 1025.5
20260902151521 74 11 1.0 2.0 0.00 0.00 0.00 53 1025.6
20260902150032 75 120 2.0 4.0 0.00 0.00 0.00 53 1025.7
20260902145020 75 131 0.0 2.0 0.00 0.00 0.00 54 1025.8
20260902144110 74 200 1.0 2.0 0.00 0.00 0.00 53 1025.9
20260902142555 74 277 1.0 4.0 0.00 0.00 0.00 54 1026.0
20260902141521 76 342 1.0 4.0 0.00 0.00 0.00 52 1026.0
20260902140109 75 109 1.0 4.0 0.00 0.00 0.00 53 1026.0
20260902134556 74 90 0.0 2.0 0.00 0.00 0.00 55 1026.2
20260902133558 77 96 1.0 4.0 0.00 0.00 0.00 52 1026.1
20260902132543 78 315 2.0 2.0 0.00 0.00 0.00 51 1026.3
20260902131520 76 247 3.0 11.0 0.00 0.00 0.00 53 1026.4
20260902130056 77 104 3.0 8.0 0.00 0.00 0.00 52 1026.5
20260902124608 76 184 2.0 4.0 0.00 0.00 0.00 52 1026.6
20260902123557 75 307 3.0 7.0 0.00 0.00 0.00 54 1026.6
20260902122544 74 135 3.0 7.0 0.00 0.00 0.00 54 1026.9
20260902121520 73 68 0.0 2.0 0.00 0.00 0.00 56 1026.8
20260902120607 74 23 1.0 2.0 0.00 0.00 0.00 56 1027.0
20260902115520 72 290 1.0 4.0 0.00 0.00 0.00 57 1026.9
20260902114607 72 240 2.0 6.0 0.00 0.00 0.00 56 1027.1
20260902113520 72 88 1.0 4.0 0.00 0.00 0.00 54 1027.2
20260902112044 71 308 1.0 4.0 0.00 0.00 0.00 56 1027.4
20260902111032 71 111 1.0 4.0 0.00 0.00 0.00 57 1027.5
20260902105609 71 0.0 0.0 0.00 0.00 0.00 57 1027.4
20260902104110 71 94 1.0 4.0 0.00 0.00 0.00 59 1027.6
20260902102530 70 114 2.0 4.0 0.00 0.00 0.00 60 1027.6
20260902101521 71 167 1.0 4.0 0.00 0.00 0.00 61 1027.8
20260902100110 71 261 2.0 6.0 0.00 0.00 0.00 60 1027.8
20260902094607 71 348 2.0 4.0 0.00 0.00 0.00 62 1027.8
20260902093521 70 82 2.0 6.0 0.00 0.00 0.00 65 1028.0
20260902092107 70 135 2.0 6.0 0.00 0.00 0.00 64 1028.1
20260902091034 69 134 2.0 8.0 0.00 0.00 0.00 68 1028.1
20260902085543 68 131 1.0 4.0 0.00 0.00 0.00 72 1028.1
20260902084531 66 180 0.0 2.0 0.00 0.00 0.00 73 1028.2
20260902083518 66 113 1.0 4.0 0.00 0.00 0.00 74 1028.0
20260902082607 66 225 1.0 2.0 0.00 0.00 0.00 73 1028.1
20260902081521 64 113 1.0 4.0 0.00 0.00 0.00 77 1028.1
20260902080108 64 120 1.0 4.0 0.00 0.00 0.00 78 1028.1
20260902074607 64 119 1.0 4.0 0.00 0.00 0.00 77 1028.1
20260902073521 63 118 2.0 4.0 0.00 0.00 0.00 79 1028.1
20260902072033 63 135 0.0 2.0 0.00 0.00 0.00 78 1028.1